"Period start","avg(HW err(1)/warn(2) (#))","avg(Visibility (m))","avg(Weather code (#))","avg(Precip intensity (mm/h))","min(HW err(1)/warn(2) (#))","max(HW err(1)/warn(2) (#))","std(HW err(1)/warn(2) (#))","med(HW err(1)/warn(2) (#))","min(Visibility (m))","max(Visibility (m))","std(Visibility (m))","med(Visibility (m))","min(Weather code (#))","max(Weather code (#))","std(Weather code (#))","med(Weather code (#))","min(Precip intensity (mm/h))","max(Precip intensity (mm/h))","std(Precip intensity (mm/h))","med(Precip intensity (mm/h))"
2016-07-02 00:00:00,2,49309,0,0.00,2,2,0,2,46151,50000,1293,50000,0,0,0,0,0.00,0.00,0.00,0.00
2016-07-02 00:10:00,2,49662,0,0.00,2,2,0,2,48081,50000,685,50000,0,0,0,0,0.00,0.00,0.00,0.00
2016-07-02 00:20:00,2,50000,0,0.00,2,2,0,2,50000,50000,0,50000,0,0,0,0,0.00,0.00,0.00,0.00
2016-07-02 00:30:00,2,49392,0,0.00,2,2,0,2,45936,50000,1278,50000,0,0,0,0,0.00,0.00,0.00,0.00
2016-07-02 00:40:00,2,48896,0,0.00,2,2,0,2,47089,50000,899,48876,0,0,0,0,0.00,0.00,0.00,0.00
2016-07-02 00:50:00,2,49319,0,0.00,2,2,0,2,46295,50000,1202,50000,0,0,0,0,0.00,0.00,0.00,0.00
2016-07-02 01:00:00,2,49007,0,0.00,0,2,1,2,43337,50000,2033,50000,0,0,0,0,0.00,0.00,0.00,0.00
2016-07-02 01:10:00,2,48801,0,0.00,2,2,0,2,45339,50000,1504,49668,0,0,0,0,0.00,0.00,0.00,0.00
2016-07-02 01:20:00,2,50000,0,0.00,2,2,0,2,50000,50000,0,50000,0,0,0,0,0.00,0.00,0.00,0.00
2016-07-02 01:30:00,2,48526,0,0.00,2,2,0,2,43342,50000,2383,50000,0,0,0,0,0.00,0.00,0.00,0.00
2016-07-02 01:40:00,2,49482,0,0.00,0,2,1,2,45909,50000,1235,50000,0,0,0,0,0.00,0.00,0.00,0.00
2016-07-02 01:50:00,2,48600,0,0.00,2,2,0,2,43794,50000,2099,50000,0,0,0,0,0.00,0.00,0.00,0.00
2016-07-02 02:00:00,2,49526,0,0.00,2,2,0,2,47843,50000,748,50000,0,0,0,0,0.00,0.00,0.00,0.00
2016-07-02 02:10:00,1,46831,0,0.00,0,2,1,0,36806,50000,4399,49446,0,0,0,0,0.00,0.00,0.00,0.00
2016-07-02 02:20:00,0,49680,0,0.00,0,0,0,0,48545,50000,521,50000,0,0,0,0,0.00,0.00,0.00,0.00
2016-07-02 02:30:00,1,49588,0,0.00,0,2,1,0,47229,50000,883,50000,0,0,0,0,0.00,0.00,0.00,0.00
2016-07-02 02:40:00,2,49694,0,0.00,2,2,0,2,47756,50000,690,50000,0,0,0,0,0.00,0.00,0.00,0.00
2016-07-02 02:50:00,2,49507,0,0.00,0,2,1,2,45067,50000,1480,50000,0,0,0,0,0.00,0.00,0.00,0.00
2016-07-02 03:00:00,1,48879,0,0.00,0,2,1,2,44561,50000,1715,50000,0,0,0,0,0.00,0.00,0.00,0.00
2016-07-02 03:10:00,1,48479,0,0.00,0,2,1,0,43464,50000,2415,50000,0,0,0,0,0.00,0.00,0.00,0.00
2016-07-02 03:20:00,0,49383,0,0.00,0,0,0,0,43827,50000,1852,50000,0,0,0,0,0.00,0.00,0.00,0.00
2016-07-02 03:30:00,0,48988,0,0.00,0,0,0,0,43280,50000,2156,50000,0,0,0,0,0.00,0.00,0.00,0.00
2016-07-02 03:40:00,1,48942,0,0.00,0,2,1,0,44139,50000,2132,50000,0,0,0,0,0.00,0.00,0.00,0.00
2016-07-02 03:50:00,0,48134,0,0.00,0,0,0,0,44356,50000,2383,49876,0,0,0,0,0.00,0.00,0.00,0.00
2016-07-02 04:00:00,2,48524,0,0.00,0,2,1,2,43363,50000,2434,50000,0,0,0,0,0.00,0.00,0.00,0.00
2016-07-02 04:10:00,1,48016,0,0.00,0,2,1,1,40821,50000,2888,49400,0,0,0,0,0.00,0.00,0.00,0.00
2016-07-02 04:20:00,2,47574,0,0.00,0,2,1,2,41779,50000,3148,50000,0,0,0,0,0.00,0.00,0.00,0.00
2016-07-02 04:30:00,0,49412,0,0.00,0,0,0,0,46735,50000,1037,50000,0,0,0,0,0.00,0.00,0.00,0.00
2016-07-02 04:40:00,0,49176,0,0.00,0,0,0,0,45159,50000,1544,50000,0,0,0,0,0.00,0.00,0.00,0.00
2016-07-02 04:50:00,0,49350,0,0.00,0,0,0,0,45200,50000,1453,50000,0,0,0,0,0.00,0.00,0.00,0.00
2016-07-02 05:00:00,0,49674,0,0.00,0,0,0,0,48190,50000,542,50000,0,0,0,0,0.00,0.00,0.00,0.00
2016-07-02 05:10:00,2,48004,0,0.00,2,2,0,2,43841,50000,2512,50000,0,0,0,0,0.00,0.00,0.00,0.00
2016-07-02 05:20:00,2,49153,0,0.00,2,2,0,2,46565,50000,1289,50000,0,0,0,0,0.00,0.00,0.00,0.00
2016-07-02 05:30:00,2,49822,0,0.00,2,2,0,2,48220,50000,534,50000,0,0,0,0,0.00,0.00,0.00,0.00
2016-07-02 05:40:00,2,48752,0,0.00,2,2,0,2,45223,50000,1671,49780,0,0,0,0,0.00,0.00,0.00,0.00
2016-07-02 05:50:00,2,47402,0,0.00,2,2,0,2,41928,50000,2674,47840,0,0,0,0,0.00,0.00,0.00,0.00
2016-07-02 06:00:00,2,48296,0,0.00,2,2,0,2,45605,50000,1716,48800,0,0,0,0,0.00,0.00,0.00,0.00
2016-07-02 06:10:00,2,46149,0,0.00,2,2,0,2,36769,50000,4605,48078,0,0,0,0,0.00,0.00,0.00,0.00
2016-07-02 06:20:00,2,48429,0,0.00,2,2,0,2,43312,50000,2201,50000,0,0,0,0,0.00,0.00,0.00,0.00
2016-07-02 06:30:00,2,49091,0,0.00,2,2,0,2,43969,50000,1935,50000,0,0,0,0,0.00,0.00,0.00,0.00
2016-07-02 06:40:00,2,49090,0,0.00,2,2,0,2,43896,50000,1834,50000,0,0,0,0,0.00,0.00,0.00,0.00
2016-07-02 06:50:00,2,49682,0,0.00,2,2,0,2,47299,50000,807,50000,0,0,0,0,0.00,0.00,0.00,0.00
2016-07-02 07:00:00,2,49883,0,0.00,0,2,1,2,48829,50000,351,50000,0,0,0,0,0.00,0.00,0.00,0.00
2016-07-02 07:10:00,2,49767,0,0.00,2,2,0,2,48386,50000,508,50000,0,0,0,0,0.00,0.00,0.00,0.00
2016-07-02 07:20:00,2,48650,0,0.00,2,2,0,2,44437,50000,1846,49936,0,0,0,0,0.00,0.00,0.00,0.00
2016-07-02 07:30:00,2,48402,0,0.00,0,2,1,2,41151,50000,3219,50000,0,0,0,0,0.00,0.00,0.00,0.00
2016-07-02 07:40:00,2,49334,0,0.00,2,2,0,2,43342,50000,1997,50000,0,0,0,0,0.00,0.00,0.00,0.00
2016-07-02 07:50:00,2,49935,0,0.00,0,2,1,2,49346,50000,196,50000,0,0,0,0,0.00,0.00,0.00,0.00
2016-07-02 08:00:00,0,49164,0,0.00,0,0,0,0,42749,50000,2149,50000,0,0,0,0,0.00,0.00,0.00,0.00
2016-07-02 08:10:00,0,50000,0,0.00,0,0,0,0,50000,50000,0,50000,0,0,0,0,0.00,0.00,0.00,0.00
2016-07-02 08:20:00,0,49581,0,0.00,0,0,0,0,46262,50000,1115,50000,0,0,0,0,0.00,0.00,0.00,0.00
2016-07-02 08:30:00,0,49868,0,0.00,0,0,0,0,48677,50000,397,50000,0,0,0,0,0.00,0.00,0.00,0.00
2016-07-02 08:40:00,0,49909,0,0.00,0,0,0,0,49089,50000,273,50000,0,0,0,0,0.00,0.00,0.00,0.00
2016-07-02 08:50:00,0,48582,0,0.00,0,0,0,0,43373,50000,2564,50000,0,0,0,0,0.00,0.00,0.00,0.00
2016-07-02 09:00:00,0,49418,0,0.00,0,0,0,0,46526,50000,1191,50000,0,0,0,0,0.00,0.00,0.00,0.00
2016-07-02 09:10:00,0,49908,0,0.00,0,0,0,0,49077,50000,277,50000,0,0,0,0,0.00,0.00,0.00,0.00
2016-07-02 09:20:00,0,49846,0,0.00,0,0,0,0,48723,50000,382,50000,0,0,0,0,0.00,0.00,0.00,0.00
2016-07-02 09:30:00,0,49065,0,0.00,0,0,0,0,45983,50000,1521,50000,0,0,0,0,0.00,0.00,0.00,0.00
2016-07-02 09:40:00,0,49814,0,0.00,0,0,0,0,48138,50000,559,50000,0,0,0,0,0.00,0.00,0.00,0.00
2016-07-02 09:50:00,0,49489,0,0.00,0,0,0,0,45804,50000,1249,50000,0,0,0,0,0.00,0.00,0.00,0.00
2016-07-02 10:00:00,0,48436,0,0.00,0,0,0,0,42160,50000,2439,50000,0,0,0,0,0.00,0.00,0.00,0.00
2016-07-02 10:10:00,0,47661,0,0.00,0,0,0,0,33610,50000,5128,50000,0,0,0,0,0.00,0.00,0.00,0.00
2016-07-02 10:20:00,0,50000,0,0.00,0,0,0,0,50000,50000,0,50000,0,0,0,0,0.00,0.00,0.00,0.00
2016-07-02 10:30:00,0,49817,0,0.00,0,0,0,0,48168,50000,550,50000,0,0,0,0,0.00,0.00,0.00,0.00
2016-07-02 10:40:00,0,50000,0,0.00,0,0,0,0,50000,50000,0,50000,0,0,0,0,0.00,0.00,0.00,0.00
2016-07-02 10:50:00,0,50000,0,0.00,0,0,0,0,50000,50000,0,50000,0,0,0,0,0.00,0.00,0.00,0.00
2016-07-02 11:00:00,0,50000,0,0.00,0,0,0,0,50000,50000,0,50000,0,0,0,0,0.00,0.00,0.00,0.00
2016-07-02 11:10:00,0,50000,0,0.00,0,0,0,0,50000,50000,0,50000,0,0,0,0,0.00,0.00,0.00,0.00
2016-07-02 11:20:00,0,50000,0,0.00,0,0,0,0,50000,50000,0,50000,0,0,0,0,0.00,0.00,0.00,0.00
2016-07-02 11:30:00,0,49902,0,0.00,0,0,0,0,49024,50000,293,50000,0,0,0,0,0.00,0.00,0.00,0.00
2016-07-02 11:40:00,0,49892,0,0.00,0,0,0,0,48922,50000,323,50000,0,0,0,0,0.00,0.00,0.00,0.00
2016-07-02 11:50:00,0,49999,0,0.00,0,0,0,0,49990,50000,3,50000,0,0,0,0,0.00,0.00,0.00,0.00
2016-07-02 12:00:00,0,49828,0,0.00,0,0,0,0,48280,50000,516,50000,0,0,0,0,0.00,0.00,0.00,0.00
2016-07-02 12:10:00,0,50000,0,0.00,0,0,0,0,50000,50000,0,50000,0,0,0,0,0.00,0.00,0.00,0.00
2016-07-02 12:20:00,0,49854,0,0.00,0,0,0,0,49118,50000,300,50000,0,0,0,0,0.00,0.00,0.00,0.00
2016-07-02 12:30:00,0,49356,0,0.00,0,0,0,0,43565,50000,1930,50000,0,0,0,0,0.00,0.00,0.00,0.00
2016-07-02 12:40:00,0,40099,0,0.00,0,0,0,0,17645,50000,12545,48250,0,0,0,0,0.00,0.00,0.00,0.00
2016-07-02 12:50:00,0,49700,0,0.00,0,0,0,0,46999,50000,900,50000,0,0,0,0,0.00,0.00,0.00,0.00
2016-07-02 13:00:00,0,19298,0,0.00,0,0,0,0,7737,50000,16058,9847,0,0,0,0,0.00,0.00,0.00,0.00
2016-07-02 13:10:00,0,7712,7,0.00,0,0,0,0,5474,12060,1892,7236,0,10,5,10,0.00,0.00,0.00,0.00
2016-07-02 13:20:00,0,6860,32,0.29,0,0,0,0,3304,12145,2594,6923,10,51,19,40,0.00,1.30,0.41,0.08
2016-07-02 13:30:00,0,32574,13,0.01,0,0,0,0,6107,50000,17861,39011,0,51,13,10,0.00,0.05,0.02,0.00
2016-07-02 13:40:00,0,46247,0,0.00,0,0,0,0,33363,50000,5910,49288,0,0,0,0,0.00,0.00,0.00,0.00
2016-07-02 13:50:00,0,6088,45,0.21,0,0,0,0,3063,15496,3384,5340,0,61,23,51,0.00,0.65,0.23,0.10
2016-07-02 14:00:00,0,3634,52,1.41,0,0,0,0,2493,4838,840,3574,51,52,0,52,0.15,2.65,0.87,1.43
2016-07-02 14:10:00,0,2489,53,5.57,0,0,0,0,2002,3903,578,2214,52,53,0,53,0.65,10.10,3.01,5.95
2016-07-02 14:20:00,0,3046,53,6.83,0,2,1,0,1996,5423,1130,2446,52,53,0,53,0.10,13.20,5.10,8.28
2016-07-02 14:30:00,2,2561,52,0.89,0,2,1,2,1983,3150,335,2554,51,52,0,52,0.30,2.05,0.55,0.73
2016-07-02 14:40:00,2,5175,19,0.01,0,2,1,2,2665,12050,2722,4742,10,51,17,10,0.00,0.05,0.02,0.00
2016-07-02 14:50:00,2,5075,10,0.00,2,2,0,2,2402,7683,1919,5036,10,10,0,10,0.00,0.00,0.00,0.00
2016-07-02 15:00:00,2,7186,10,0.00,2,2,0,2,3093,12978,3402,6511,10,10,0,10,0.00,0.00,0.00,0.00
2016-07-02 15:10:00,0,28044,7,0.00,0,2,1,0,10722,47628,12510,28222,0,10,5,10,0.00,0.00,0.00,0.00
2016-07-02 15:20:00,0,38954,0,0.00,0,0,0,0,17976,50000,12693,46144,0,0,0,0,0.00,0.00,0.00,0.00
2016-07-02 15:30:00,0,18544,8,0.00,0,0,0,0,1535,50000,13348,18850,0,10,4,10,0.00,0.00,0.00,0.00
2016-07-02 15:40:00,0,8058,6,0.00,0,0,0,0,3367,13133,3577,8622,0,10,5,10,0.00,0.00,0.00,0.00
2016-07-02 15:50:00,0,3659,50,3.91,0,0,0,0,3064,4529,433,3587,40,53,5,52,0.55,11.15,3.97,1.88
2016-07-02 16:00:00,2,2002,46,1.30,2,2,0,2,321,4147,1480,1804,10,61,19,52,0.00,3.45,1.21,0.98
2016-07-02 16:10:00,2,333,51,1.96,2,2,0,2,270,506,63,317,51,52,0,51,0.90,2.95,0.61,1.97
2016-07-02 16:20:00,2,340,55,0.45,2,2,0,2,283,494,55,326,51,61,5,51,0.20,0.90,0.24,0.40
2016-07-02 16:30:00,2,582,40,0.07,2,2,0,2,449,685,80,585,34,61,8,41,0.00,0.20,0.07,0.08
2016-07-02 16:40:00,2,1581,34,0.00,2,2,0,2,944,2279,448,1652,34,34,0,34,0.00,0.00,0.00,0.00
2016-07-02 16:50:00,2,4835,20,0.00,2,2,0,2,1991,11035,2916,3465,20,20,0,20,0.00,0.00,0.00,0.00
2016-07-02 17:00:00,2,24909,20,0.00,2,2,0,2,13113,38936,9254,23095,20,20,0,20,0.00,0.00,0.00,0.00
2016-07-02 17:10:00,2,40233,20,0.00,2,2,0,2,21739,50000,9908,45088,20,20,0,20,0.00,0.00,0.00,0.00
2016-07-02 17:20:00,2,15847,20,0.00,2,2,0,2,9195,26220,5436,16554,20,20,0,20,0.00,0.00,0.00,0.00
2016-07-02 17:30:00,1,17888,20,0.00,0,2,1,2,10154,27256,5845,17014,20,20,0,20,0.00,0.00,0.00,0.00
2016-07-02 17:40:00,0,31850,20,0.00,0,0,0,0,17838,43692,8410,32298,20,20,0,20,0.00,0.00,0.00,0.00
2016-07-02 17:50:00,0,24988,0,0.00,0,0,0,0,15877,38788,7749,24286,0,0,0,0,0.00,0.00,0.00,0.00
2016-07-02 18:00:00,0,27869,0,0.00,0,0,0,0,14295,43853,10615,26569,0,0,0,0,0.00,0.00,0.00,0.00
2016-07-02 18:10:00,0,18043,0,0.00,0,0,0,0,9769,23616,3987,18166,0,0,0,0,0.00,0.00,0.00,0.00
2016-07-02 18:20:00,0,10572,0,0.00,0,0,0,0,6304,15198,2904,11119,0,0,0,0,0.00,0.00,0.00,0.00
2016-07-02 18:30:00,0,11576,0,0.00,0,0,0,0,8043,20933,3744,10266,0,0,0,0,0.00,0.00,0.00,0.00
2016-07-02 18:40:00,0,34940,0,0.00,0,0,0,0,21290,44362,6869,36338,0,0,0,0,0.00,0.00,0.00,0.00
2016-07-02 18:50:00,0,42410,0,0.00,0,0,0,0,30000,50000,5157,42462,0,0,0,0,0.00,0.00,0.00,0.00
2016-07-02 19:00:00,0,48667,0,0.00,0,0,0,0,45026,50000,1727,49583,0,0,0,0,0.00,0.00,0.00,0.00
2016-07-02 19:10:00,0,40041,0,0.00,0,0,0,0,23372,50000,8580,41712,0,0,0,0,0.00,0.00,0.00,0.00
2016-07-02 19:20:00,0,47071,0,0.00,0,0,0,0,39573,50000,3588,48772,0,0,0,0,0.00,0.00,0.00,0.00
2016-07-02 19:30:00,0,33750,0,0.00,0,0,0,0,18086,44275,9157,33189,0,0,0,0,0.00,0.00,0.00,0.00
2016-07-02 19:40:00,0,36505,0,0.00,0,0,0,0,15084,50000,12872,40751,0,0,0,0,0.00,0.00,0.00,0.00
2016-07-02 19:50:00,0,38861,0,0.00,0,0,0,0,22181,50000,9127,40144,0,0,0,0,0.00,0.00,0.00,0.00
2016-07-02 20:00:00,0,37230,0,0.00,0,0,0,0,17989,50000,11268,41800,0,0,0,0,0.00,0.00,0.00,0.00
2016-07-02 20:10:00,0,33810,0,0.00,0,0,0,0,19235,50000,9652,35850,0,0,0,0,0.00,0.00,0.00,0.00
2016-07-02 20:20:00,0,25909,0,0.00,0,0,0,0,15644,38361,7694,22636,0,0,0,0,0.00,0.00,0.00,0.00
2016-07-02 20:30:00,0,26960,0,0.00,0,0,0,0,23315,34331,3009,26448,0,0,0,0,0.00,0.00,0.00,0.00
2016-07-02 20:40:00,0,43860,0,0.00,0,0,0,0,36788,50000,4734,44828,0,0,0,0,0.00,0.00,0.00,0.00
2016-07-02 20:50:00,0,42348,0,0.00,0,0,0,0,30434,48452,5165,44112,0,0,0,0,0.00,0.00,0.00,0.00
2016-07-02 21:00:00,0,48402,0,0.00,0,0,0,0,38248,50000,3612,50000,0,0,0,0,0.00,0.00,0.00,0.00
2016-07-02 21:10:00,0,23573,0,0.00,0,0,0,0,12152,39664,10751,18810,0,0,0,0,0.00,0.00,0.00,0.00
2016-07-02 21:20:00,0,36187,0,0.00,0,0,0,0,20183,50000,11419,38764,0,0,0,0,0.00,0.00,0.00,0.00
2016-07-02 21:30:00,0,43396,0,0.00,0,0,0,0,33003,50000,6523,45438,0,0,0,0,0.00,0.00,0.00,0.00
2016-07-02 21:40:00,0,45720,0,0.00,0,0,0,0,24584,50000,8625,50000,0,0,0,0,0.00,0.00,0.00,0.00
2016-07-02 21:50:00,0,34993,0,0.00,0,0,0,0,20489,50000,8790,36366,0,0,0,0,0.00,0.00,0.00,0.00
2016-07-02 22:00:00,0,31402,0,0.00,0,0,0,0,18168,45238,7776,32294,0,0,0,0,0.00,0.00,0.00,0.00
2016-07-02 22:10:00,1,48791,0,0.00,0,2,1,1,45599,50000,1606,49896,0,0,0,0,0.00,0.00,0.00,0.00
2016-07-02 22:20:00,2,38175,0,0.00,0,2,1,2,13816,50000,12249,42418,0,0,0,0,0.00,0.00,0.00,0.00
2016-07-02 22:30:00,2,49549,0,0.00,2,2,0,2,47771,50000,778,50000,0,0,0,0,0.00,0.00,0.00,0.00
2016-07-02 22:40:00,2,46614,0,0.00,2,2,0,2,33575,50000,5020,49186,0,0,0,0,0.00,0.00,0.00,0.00
2016-07-02 22:50:00,2,44605,0,0.00,1,2,0,2,30628,50000,7716,49276,0,0,0,0,0.00,0.00,0.00,0.00
2016-07-02 23:00:00,2,49960,0,0.00,2,2,0,2,49598,50000,121,50000,0,0,0,0,0.00,0.00,0.00,0.00
2016-07-02 23:10:00,2,49402,0,0.00,2,2,0,2,47134,50000,1057,50000,0,0,0,0,0.00,0.00,0.00,0.00
2016-07-02 23:20:00,2,50000,0,0.00,2,2,0,2,50000,50000,0,50000,0,0,0,0,0.00,0.00,0.00,0.00
2016-07-02 23:30:00,2,49565,0,0.00,2,2,0,2,45652,50000,1304,50000,0,0,0,0,0.00,0.00,0.00,0.00
2016-07-02 23:40:00,2,49859,0,0.00,0,2,1,2,49117,50000,293,50000,0,0,0,0,0.00,0.00,0.00,0.00
2016-07-02 23:50:00,2,50000,0,0.00,2,2,0,2,50000,50000,0,50000,0,0,0,0,0.00,0.00,0.00,0.00
